User: anonymous   Login
Location: Muenchen
(48.1800°N, 11.5800°E)
Time: 00:18:37
(UTC+02:00)
Language:

Sich 1 Rocket - Orbit

View from above orbital plane
View from above orbital plane
View from above satellite
View from above satellite

Ground track
Ground track

The orbit data is extracted from the following two-line orbital elements,

1 23659U 95046C   17289.19359677  .00000106  00000-0  11408-4 0  9998
2 23659  82.5330 193.1716 0025174 194.9993 316.6261 14.78258365192421
Epoch (UTC): 16 October 2017 04:38:46
Eccentricity: 0.0025174
inclination: 82.5330°
perigee height: 617 km
apogee height: 652 km
right ascension of ascending node: 193.1716°
argument of perigee: 194.9993°
revolutions per day: 14.78258365
mean anomaly at epoch: 316.6261°
orbit number at epoch: 19242

The dashed part of the orbit path shows where the satellite is in the earth's shadow,  

DLR